Regional Weather Roundup
Issued by NWS

Home | Current Version | Previous Version | Text Only | Print | Product List | Glossary On
Versions: 1 2 3 4 5 6 7 8 9 10 11 12 13 14 15 16 17 18 19 20 21 22 23 24 25 26 27 28 29 30 31 32 33 34 35 36 37 38 39 40 41 42 43 44 45 46 47 48 49 50
000
ASUS43 KMKX 260511
RWRWI

WISCONSIN REGIONAL WEATHER ROUNDUP
NATIONAL WEATHER SERVICE MILWAUKEE/SULLIVAN WI
1100 PM CST THU DEC 25 2014

NOTE: "FAIR" INDICATES FEW OR NO CLOUDS BELOW 12,000 FEET WITH NO
SIGNIFICANT WEATHER AND/OR OBSTRUCTIONS TO VISIBILITY.

WIZ001-002-006>008-014>016-023>028-260600-
NORTHWEST WISCONSIN

CITY           SKY/WX    TMP DP  RH WIND       PRES   REMARKS
SUPERIOR ARPT  CLOUDY    31  29  92 CALM      29.92R
ASHLAND        CLOUDY    32  29  88 CALM      29.91S
HAYWARD        LGT SNOW  31  29  92 CALM      29.89R VSB 1
SIREN          LGT SNOW  31  31  99 CALM      29.90R
CUMBERLAND     MOCLDY    28  28 100 CALM      29.87S FOG
RICE LAKE      CLOUDY    30  29  98 N5        29.89S FOG     WCI  25
CHETEK         MOCLDY    30  29  96 NE3       29.88S FOG
LADYSMITH      CLOUDY    31  30  96 E3        29.90S FOG
EAU CLAIRE     PTCLDY    30  27  88 NE6       29.86F WCI  24
MENOMONIE      PTCLDY    32  31  95 N3        29.86F FOG
NEW RICHMOND   PTCLDY    29  29 100 NE5       29.86F FOG     WCI  23
OSCEOLA        MOCLDY    31  31 100 CALM      29.90S FOG
$$

WIZ003>005-009-010-017-018-260600-
NORTH CENTRAL WISCONSIN

CITY           SKY/WX    TMP DP  RH WIND       PRES   REMARKS
MANITOWISH WTR LGT SNOW  28  28 100 CALM      29.88R
ARBOR VITAE    LGT SNOW  32  31  95 CALM      29.88R
WOODRUFF       LGT SNOW  32  31  95 CALM      29.88R
RHINELANDER    CLOUDY    29  28  96 CALM      29.89R FOG
EAGLE RIVER    LGT SNOW  29  29 100 CALM      29.88R
LAND O LAKES   LGT SNOW  30  29  99 CALM      29.89S
PHILLIPS       CLOUDY    29  29  99 CALM      29.88R FOG
TOMAHAWK       CLOUDY    29  28  95 CALM      29.89S FOG
MEDFORD        CLOUDY    28  26  94 E3        29.86S FOG
MERRILL        MOCLDY    26  26 100 NE3       29.89S FOG
$$

WIZ029-030-035-036-043>047-260600-
CENTRAL WISCONSIN

CITY           SKY/WX    TMP DP  RH WIND       PRES   REMARKS
WAUSAU         PTCLDY    28  27  96 SE3       29.88S
MOSINEE        PTCLDY    30  30 100 E5        29.89S WCI  25
MARSHFIELD     PTCLDY    29  26  89 E5        29.88R WCI  24
STEVENS POINT  PTCLDY    26  26  98 CALM      29.90S FOG
WAUPACA        PTCLDY    29  28  96 CALM      29.92S FOG
WAUTOMA        MOCLDY    29  29 100 CALM      29.92S
WISC RAPIDS    PTCLDY    28  24  85 CALM      29.90S FOG
CAMP DOUGLAS   NOT AVBL
$$

WIZ011>013-019>022-031-037>040-048>050-260600-
NORTHEAST WISCONSIN

CITY           SKY/WX    TMP DP  RH WIND       PRES   REMARKS
ANTIGO         MOCLDY    25  25 100 CALM      29.88F FOG
SHAWANO        PTCLDY    31  30  95 CALM      29.93S FOG
OCONTO           N/A     28  28 100 CALM      29.94S
STURGEON BAY   MOCLDY    34  30  86 S6        29.96S WCI  29
GREEN BAY      PTCLDY    31  29  92 CALM      29.94R FOG
MANITOWOC      PTCLDY    33  31  92 CALM      29.96R
APPLETON       PTCLDY    30  30 100 SE5       29.92F WCI  25
CLINTONVILLE     N/A     28  28 100 CALM      29.92S FOG
OSHKOSH        MOCLDY    36  32  85 S9        29.92S WCI  29
$$

WIZ032>034-041-042-053>061-260600-
SOUTHWEST WISCONSIN

CITY           SKY/WX    TMP DP  RH WIND       PRES   REMARKS
LA CROSSE      MOCLDY    32  29  88 SE3       29.86S
SPARTA         MOCLDY    27  27 100 CALM      29.88S
VIROQUA        MOCLDY    35  34  94 S9        29.85S WCI  28
BOSCOBEL       PTCLDY    38  31  76 S5        29.89S WCI  34
PRAIRIE DU CHI PTCLDY    38  31  74 E5        29.86S WCI  35
PLATTEVILLE    PTCLDY    37  34  86 S12       29.89F WCI  30
$$

WIZ056-057-062-063-064-067-068-260600-
SOUTH CENTRAL WISCONSIN

CITY           SKY/WX    TMP DP  RH WIND       PRES   REMARKS
REEDSBURG      CLOUDY    38  32  80 S7        29.89S WCI  32
BARABOO/DELLS  CLOUDY    38  32  80 S8        29.89S WCI  32
LONE ROCK      MOCLDY    40  31  70 E6        29.90F
MINERAL POINT  MOCLDY    37  34  87 SE10      29.89S WCI  30
MADISON        CLOUDY    38  33  82 S7        29.93R WCI  33
MIDDLETON      CLOUDY    39  33  79 S7        29.92S WCI  34
WATERTOWN      CLOUDY    37  35  91 S8        29.94S WCI  31
MONROE         PTCLDY    36  34  93 S15       29.91F WCI  26
JANESVILLE     MOCLDY    39  34  81 S14       29.94F WCI  31
$$

WIZ051-052-058>065-066-070>072-260600-
SOUTHEAST WISCONSIN

CITY           SKY/WX    TMP DP  RH WIND       PRES   REMARKS
MILWAUKEE      CLOUDY    40  33  76 SW13      29.98R WCI  32
WAUKESHA       CLOUDY    36  32  87 S9        29.98R WCI  29
MILWAUKEE/TIMM CLOUDY    39  32  75 S14       29.98R WCI  31
RACINE         CLOUDY    40  33  76 S12       30.01R WCI  33
BURLINGTON     CLOUDY    37  32  82 S10       29.97S WCI  30
KENOSHA        CLOUDY    41  34  76 SW14G21   29.98S
FOND DU LAC    CLOUDY    39  33  79 S16       29.93R WCI  30
SHEBOYGAN      PTCLDY    37  32  82 SW8       29.95R WCI  31
WEST BEND      CLOUDY    37  32  81 S7        29.96R WCI  32
JUNEAU         CLOUDY    37  34  89 S7        29.95S WCI  31
$$

LSZ147-162-260600-
LAKE SUPERIOR

STATION/POSITION TIME  TEMP    WIND        PRES    WAVE
                       AIR SEA DIR/SP/G            HT/PER
                 (UTC) (F)     (DEG/KT/KT) (MB)    (FT/S)
DEVILS ISLAND    0500   35     340/  5/  6 1013.7R
PORT WING        0400   33     170/  3/  3 1012.9R
SAXON HARBOR     0400   33      CALM  /  3 1012.9
$$

LMZ867-665-643>646-260600-
LAKE MICHIGAN

STATION/POSITION TIME  TEMP    WIND        PRES    WAVE
                       AIR SEA DIR/SP/G            HT/PER
                 (UTC) (F)     (DEG/KT/KT) (MB)    (FT/S)
CHAMBERS ISLAND  0400   34     180/  2/  5 1014.2R
NORTHPORT PIER   0501   32      CALM  /  1 1014.2S
SISTER BAY       0413          140/  2/  4   N/A
ALGOMA LAKESHORE 0415             CALM       N/A
KEWAUNEE LAKESHO 0400   36     190/  2/  4 1013.1R
SHEBOYGAN LAKESH 0500   39 37  210/ 13/ 15 1015.1R
PORT WASHINGTON  0400   40     200/  8/ 11 1015.2R
MILWAUKEE LAKESH 0400   41     220/ 13/ 16   N/A
KENOSHA   LAKESH 0500   42     200/ 11/ 15 1015.6S
$$

TC  - TEMPERATURE IN CELSIUS
VSB - VISIBILITY IN STATUTE MILES
WCI - WIND CHILL INDEX
HX  - HEAT INDEX



USA.gov is the U.S. government's official web portal to all federal, state and local government web resources and services.